OpenBCM V1.13 (Linux)

Packet Radio Mailbox

DB0FHN

[JN59NK Nuernberg]

 Login: GUEST





  
LU9DCE > KEP      23.03.19 19:34l 253 Lines 12403 Bytes #999 (0) @ WW
BID : 20440_LU9DCE
Read: DK3UZ DF7EAV GUEST
Subj: TLE 23 03
Path: DB0FHN<DB0BLO<DB0ERF<IZ3LSV<IW0QNL<JH4XSY<N3HYM<LU9DCE
Sent: 190323/1803Z 20440@LU9DCE.TOR.BA.ARG.SOAM LinBPQ6.0.18

            __    _  _  ___  ____   ___  ____    ____  ____  ____
           (  )  / )( \/ _ \(    \ / __)(  __)  (  _ \(  _ \/ ___)
           / (_/\) \/ (\__  )) D (( (__  ) _)    ) _ ( ) _ (\___ \
           \____/\____/(___/(____/ \___)(____)  (____/(____/(____/
               ESTACION DE PACKET RADIO - BUENOS AIRES (GF05OM)
                   BOLETINES INFORMATIVOS PROGRAMADOS (BIP)
                  SOPORTE TECNICO - HELLOCODELINUX@GMAIL.COM

+----------------------------------------------------------------------------+
OSCAR 7
1  7530U 74089B   19082.16435457 -.00000048  00000-0 -22502-4 0  9997
2  7530 101.7339  50.7595 0012224 154.5019 274.1509 12.53637216 29553
OSCAR 11 (UoSAT 2)
1 14781U 84021B   19081.65350042  .00000074  00000-0  15168-4 0  9996
2 14781  97.6203 110.4928 0007117 244.1460 115.9021 14.83070898885718
OSCAR 19 (LUSAT)
1 20442U 90005G   19081.82642651 +.00000005 +00000-0 +18254-4 0  9998
2 20442 098.6406 024.0136 0012710 051.9188 308.3140 14.32920019523736
EYESAT A
1 22825U 93061C   19081.90142285 -.00000024 +00000-0 +88509-5 0  9990
2 22825 098.8977 068.5621 0007351 252.8054 107.2323 14.30053751329134
ITAMSAT
1 22826U 93061D   19081.92352920 -.00000019 +00000-0 +10634-4 0  9999
2 22826 098.8917 068.5872 0007948 240.5213 119.5176 14.30386865329351
RADIO ROSTO
1 23439U 94085A   19081.90757012 -.00000062  00000-0 -54916-3 0  9995
2 23439  64.8140 258.0835 0148266 130.0650 303.0323 11.27568303998151
JAS 2
1 24278U 96046B   19082.07498551 -.00000025  00000-0  71383-5 0  9992
2 24278  98.5237 247.4283 0351362 107.2405 256.7501 13.53089957115955
TECHSAT 1B
1 25397U 98043D   19081.83849224 -.00000010  00000-0  15005-4 0  9996
2 25397  98.6812  23.0852 0000527 355.3528   4.7645 14.23662060 75375
ISS (ZARYA)
1 25544U 98067A   19082.36613198  .00001420  00000-0  29954-4 0  9997
2 25544  51.6411  67.8596 0003842 129.1413 341.5370 15.52842823161921
PCSAT
1 26931U 01043C   19081.82791315 -.00000038 +00000-0 +17243-4 0  9997
2 26931 067.0503 230.4081 0005482 275.4285 084.6191 14.30535774912330
SAUDISAT 1C
1 27607U 02058C   19081.91321513 -.00000007 +00000-0 +19909-4 0  9991
2 27607 064.5552 317.9654 0082349 273.2477 085.9207 14.75528884873959
CUTE-1
1 27844U 03031E   19081.92070797 +.00000033 +00000-0 +34472-4 0  9992
2 27844 098.6869 091.4360 0008696 287.1606 072.8620 14.22165943815775
CUBESAT XI 4
1 27848U 03031J   19081.95828658 +.00000021 +00000-0 +29620-4 0  9992
2 27848 098.6948 091.9528 0008658 299.4758 060.5555 14.21762713815644
MOZHAYETS 4
1 27939U 03042A   19082.18367554  .00000080  00000-0  22961-4 0  9990
2 27939  98.0244 219.7807 0012238 351.8830   8.2184 14.66761880827712
CUBESAT XI 5
1 28895U 05043F   19082.07198848  .00000114  00000-0  30680-4 0  9996
2 28895  97.9440 227.8779 0015433 267.7835  92.1600 14.63640442714669
CUTE-1.7+APD II
1 32785U 08021C   19081.87938792 +.00000193 +00000-0 +26460-4 0  9993
2 32785 097.5494 085.7412 0012793 187.5062 172.5966 14.88266319590551
DELFI C3
1 32789U 08021G   19081.76345046  .00001530  00000-0  10679-3 0  9999
2 32789  97.4754 134.0432 0013669  70.2160 290.0541 15.06733226593727
SEEDS
1 32791U 08021J   19081.84368063 +.00000382 +00000-0 +44150-4 0  9991
2 32791 097.5303 091.5786 0013774 164.2530 195.9120 14.90757086590941
YUBELEINY
1 32953U 08025A   19081.99747115  .00000020  00000-0  75656-4 0  9994
2 32953  82.5064 199.2847 0018053 323.0202  36.9630 12.43088214491417
PRISM (HITOMI)
1 33493U 09002B   19081.87647722  .00000038  00000-0  89095-5 0  9992
2 33493  98.1231 359.5064 0016290 111.1074 249.1890 14.96550592552015
KKS-1 (KISEKI)
1 33499U 09002H   19081.91892409 +.00000062 +00000-0 +17192-4 0  9992
2 33499 098.3549 277.7961 0010277 122.0167 238.2041 14.75415890545854
SWISSCUBE
1 35932U 09051B   19081.92455323 +.00000124 +00000-0 +39031-4 0  9996
2 35932 098.5769 245.3751 0008751 078.1918 282.0260 14.56255143503969
BEESAT
1 35933U 09051C   19082.00171020  .00000092  00000-0  31866-4 0  9998
2 35933  98.5802 247.1682 0007036  89.7058 270.4945 14.56347986504126
ITUPSAT 1
1 35935U 09051E   19082.14644097  .00000059  00000-0  24839-4 0  9999
2 35935  98.5914 247.5606 0009321  85.9310 274.2952 14.55511896503907
XIWANG-1 (HOPE-1)
1 36122U 09072B   19081.72228650 -.00000013 +00000-0 +77318-4 0  9998
2 36122 100.0744 088.2399 0007487 182.4999 177.6073 13.16349156445305
TISAT 1
1 36799U 10035E   19081.97347902  .00000385  00000-0  44991-4 0  9990
2 36799  98.1418 231.2861 0012509  20.1735 339.9974 14.91031968471698
JUGNU
1 37839U 11058B   19081.37299701 +.00000344 +00000-0 +41642-4 0  9994
2 37839 019.9602 150.3471 0019062 073.4455 005.9378 14.12645052384643
SRMSAT
1 37841U 11058D   19081.43089852  .00000296  00000-0  17729-4 0  9993
2 37841  19.9709 204.9468 0011846 307.4231 101.8187 14.10626880384213
M-CUBED/EXP-1 PRIME
1 37855U 11061F   19082.19434939  .00000907  00000-0  53610-4 0  9994
2 37855 101.7268 292.8281 0174243 336.1335  23.1867 15.05208474403619
HORYU 2
1 38340U 12025D   19081.90359725 +.00000176 +00000-0 +33713-4 0  9992
2 38340 098.3401 117.8109 0012383 049.0140 311.2137 14.75681709357806
STRAND 1
1 39090U 13009E   19082.14487041  .00000025  00000-0  24016-4 0  9997
2 39090  98.4973 289.5251 0009031 181.9639 178.1512 14.35074906317831
SOMP
1 39134U 13015E   19081.92199492 +.00001188 +00000-0 +64184-4 0  9999
2 39134 064.8630 304.7443 0022447 315.9509 043.9829 15.19916507326870
BEESAT 3
1 39135U 13015F   19081.95311086 +.00000709 +00000-0 +45222-4 0  9998
2 39135 064.8686 321.7344 0010028 300.0041 060.0090 15.17272844326540
BEESAT 2
1 39136U 13015G   19081.89175530  .00000705  00000-0  45720-4 0  9993
2 39136  64.8705 325.4858 0011525 296.4083  63.5860 15.16716815326858
CUBEBUG 1
1 39153U 13018D   19082.17483864  .00000203  00000-0  33327-4 0  9992
2 39153  97.9743 180.8205 0018247 120.3303 239.9717 14.80528422318871
ZACUBE
1 39417U 13066B   19081.94549156 +.00000176 +00000-0 +28633-4 0  9992
2 39417 097.5683 100.3536 0057978 322.8922 036.8289 14.81071987288051
TRITON 1
1 39427U 13066M   19081.92587967 +.00000231 +00000-0 +44479-4 0  9991
2 39427 097.6683 064.7705 0115440 086.5399 274.9002 14.67795049285270
GOMX 1
1 39430U 13066Q   19081.78414416  .00000129  00000-0  32291-4 0  9992
2 39430  97.7351  44.1823 0151338 170.8946 189.5064 14.59209001283783
HUMSAT D
1 39433U 13066T   19081.83354750  .00000430  00000-0  47396-4 0  9992
2 39433  97.5655 132.8783 0029687 231.8619 127.9924 14.92110632289973
CUBEBUG 2
1 39440U 13066AA  19081.95031045 +.00000241 +00000-0 +40496-4 0  9996
2 39440 097.6018 085.5731 0080600 011.1500 349.1473 14.75810141285833
FUNCUBE 1
1 39444U 13066AE  19081.92669086 +.00000237 +00000-0 +35654-4 0  9994
2 39444 097.5672 102.1924 0056975 317.1489 042.5291 14.81881445286346
UWE-3
1 39446U 13066AG  19082.17233931  .00000187  00000-0  31610-4 0  9992
2 39446  97.5838  92.6886 0069668 346.9358  13.0047 14.78345016286336
SPROUT
1 39770U 14029E   19082.10284377  .00000564  00000-0  68768-4 0  9998
2 39770  97.8789 186.0126 0009075  24.2081 335.9524 14.87220795261812
UNISAT 6
1 40012U 14033C   19082.17095557  .00000154  00000-0  30425-4 0  9995
2 40012  97.7709 312.4838 0058994  21.5262 338.8408 14.73940138255792
DUCHIFAT 1
1 40021U 14033M   19081.73966728  .00000496  00000-0  56573-4 0  9994
2 40021  97.9225   6.0573 0012674 346.8846  13.2040 14.90552138258444
QB50P1
1 40025U 14033R   19081.72987113  .00000304  00000-0  38384-4 0  9996
2 40025  97.9065   1.5574 0012364 355.8754   4.2358 14.88886854258236
CHUBUSAT 1
1 40300U 14070C   19082.21842227  .00000636  00000-0  30784-4 0  9998
2 40300  97.3348 158.5887 0020590   6.7798  71.5276 15.21958882242711
NUDT-PHONESAT
1 40900U 15049B   19082.03444367  .00001888  00000-0  84594-4 0  9992
2 40900  97.4397  92.2427 0014691 127.7945 295.9463 15.22402813194321
ZDPS 2A
1 40901U 15049C   19082.05019074  .00000778  00000-0  42040-4 0  9995
2 40901  97.4611  89.1468 0014848 141.8397 304.8695 15.17561417193947
ZDPS 2B
1 40902U 15049D   19082.06322265  .00000917  00000-0  49249-4 0  9999
2 40902  97.4537  86.7747 0014891 139.1691 307.0030 15.17336274193920
XW-2A
1 40903U 15049E   19082.08818510  .00001691  00000-0  42265-4 0  9996
2 40903  97.3498 124.3164 0015779 101.5467 342.5704 15.41493250196759
KAITUO 1A
1 40904U 15049F   19082.16407039  .00000151  00000-0  11499-4 0  9991
2 40904  97.4660  85.6797 0015552 145.1002 267.7277 15.15274258193746
OBJECT G
1 40905U 15049G   19082.05642454  .00000609  00000-0  36810-4 0  9994
2 40905  97.4686  83.2364 0016817 140.3717 304.5751 15.14212132193619
XW-2C
1 40906U 15049H   19081.98390637  .00000744  00000-0  42594-4 0  9995
2 40906  97.4669  85.5258 0016168 137.8068 274.8323 15.15551709193719
XW-2D
1 40907U 15049J   19082.10741943  .00000553  00000-0  32395-4 0  9997
2 40907  97.4644  85.3256 0015621 134.9874 295.5421 15.15728331193744
LILACSAT 2
1 40908U 15049K   19082.00175388  .00000567  00000-0  34979-4 0  9996
2 40908  97.4775  84.2043 0016942 140.5195 276.2127 15.13728714193548
XW-2F
1 40910U 15049M   19082.01721044  .00000925  00000-0  49943-4 0  9991
2 40910  97.4623  87.0575 0016190 129.6327 295.0626 15.17097151193725
XW-2B
1 40911U 15049N   19082.00140605  .00000798  00000-0  45308-4 0  9998
2 40911  97.4675  85.8486 0015482 136.1879 279.6254 15.15663349193628
KAITUO 1B
1 40912U 15049P   19081.98150848  .00001122  00000-0  56098-4 0  9995
2 40912  97.4514  90.4779 0016816 115.5008 300.1683 15.19383860193992
TIANWANG 1C (TW-1C)
1 40926U 15051B   19082.11353309  .00009455  00000-0  14880-3 0  9995
2 40926  97.1489 128.4616 0007549 350.2145  61.9664 15.53778887196551
